Regional Weather Roundup
Issued by NWS

Home | Current Version | Previous Version | Text Only | Print | Product List | Glossary On
Versions: 1 2 3 4 5 6 7 8 9 10 11 12 13 14 15 16 17 18 19 20 21 22 23 24 25 26 27 28 29 30 31 32 33 34 35 36 37 38 39 40 41 42 43 44 45 46 47 48 49 50
000
ASUS43 KOAX 020510
RWRNE
WEATHER ROUNDUP FOR NEBRASKA
NATIONAL WEATHER SERVICE OMAHA NE
1200 AM CDT TUE JUN 02 2015

NOTES: SATELLITE DATA IS BEING USED TO AUGMENT CLOUD COVER ABOVE
       12000 FEET.
       "FAIR" INDICATES FEW OR NO CLOUDS BELOW 12,000 FEET WITH NO
       SIGNIFICANT WEATHER AND/OR OBSTRUCTIONS TO VISIBILITY.

  * THESE STATIONS DO NOT REPORT WEATHER SUCH AS RAIN...SNOW OR FOG.

NEZ001>004-019>022-054>056-020600-
NEBRASKA PANHANDLE

CITY           SKY/WX    TMP DP  RH WIND       PRES   REMARKS
SCOTTSBLUFF    MOCLDY    61  54  77 SE3       29.96S
ALLIANCE       CLOUDY    62  55  77 S14       29.93F
CHADRON        CLOUDY    68  53  58 W9        29.92R
KIMBALL          N/A    N/A N/A N/A MISG        N/A
SIDNEY         CLOUDY    58  55  90 SE13      30.00R
$$

NEZ057>060-069>072-079>082-020600-
SOUTHWEST NEBRASKA

CITY           SKY/WX    TMP DP  RH WIND       PRES   REMARKS
NORTH PLATTE   TSTM      62  59  90 W14G24    30.06R
IMPERIAL       TSTM      60  56  86 NE14G25   30.02F
LEXINGTON      CLOUDY    64  59  85 SE14      30.01S
MCCOOK         CLOUDY    67  61  81 SE12      29.98S
OGALLALA       LGT RAIN  64  56  77 NE17G24   29.98F
$$

NEZ005>010-023>029-035>040-094-020600-
NORTH CENTRAL NEBRASKA

CITY           SKY/WX    TMP DP  RH WIND       PRES   REMARKS
VALENTINE      CLOUDY    68  60  75 S21G31    29.90F
AINSWORTH      CLOUDY    65  59  81 S15       29.95F
BROKEN BOW     CLOUDY    64  59  83 S12       30.00F
O`NEILL        MOCLDY    65  58  78 S12       29.98F
ORD            CLOUDY    64  57  78 S9        29.99F
THEDFORD       CLOUDY    68  62  80 S14       29.99F
$$

NEZ041-046>049-061>064-073>077-083>087-020600-
SOUTH CENTRAL NEBRASKA

CITY           SKY/WX    TMP DP  RH WIND       PRES   REMARKS
GRAND ISLAND   CLOUDY    67  55  65 S15       30.03F
AURORA         MOCLDY    65  56  73 SE12      30.03F
HASTINGS       CLOUDY    66  56  70 SE13      30.03F
HEBRON         PTCLDY    65  55  70 SE9       30.05F
HOLDREGE       CLOUDY    62  57  83 SE12      30.02S
KEARNEY *      CLOUDY    63  55  77 SE13      30.02F
YORK           PTCLDY    64  55  72 S12       30.05F
$$

NEZ011>018-030>034-042>045-020600-
NORTHEAST NEBRASKA

CITY           SKY/WX    TMP DP  RH WIND       PRES   REMARKS
NORFOLK        CLEAR     65  53  65 SE15G22   30.02F
ALBION         MOCLDY    65  54  66 S10G17    30.02F
BLAIR          CLEAR     63  51  64 S9        30.08S
COLUMBUS *     CLEAR     64  52  63 S10       30.06F
FREMONT        CLEAR     64  52  64 SE13G18   30.07S
TEKAMAH        FAIR      63  51  65 S10       30.06S
WAYNE          CLEAR     62  53  72 S10       30.04F
$$

NEZ050>053-065>068-078-088>093-020600-
SOUTHEAST NEBRASKA

CITY           SKY/WX    TMP DP  RH WIND       PRES   REMARKS
LINCOLN        CLEAR     63  55  75 S15       30.08S
OMAHA EPPLEY   PTCLDY    64  52  64 S10       30.08S
BEATRICE       CLEAR     61  55  82 SE10G16   30.08F
FALLS CITY     CLEAR     57  52  83 S6        30.11R
NEBRASKA CITY  CLEAR     58  52  79 S10       30.11S
PLATTSMOUTH    CLEAR     60  53  77 S8        30.09S
$$

NEZ044-045-051>053-067-020600-
OMAHA AREA

CITY           SKY/WX    TMP DP  RH WIND       PRES   REMARKS
OMAHA EPPLEY   PTCLDY    64  52  64 S10       30.08S
BLAIR          CLEAR     63  51  64 S9        30.08S
FREMONT        CLEAR     64  52  64 SE13G18   30.07S
MILLARD        CLEAR     64  55  72 S7        30.08F
OFFUTT AFB     CLEAR     62  54  76 SE8       30.08S
PLATTSMOUTH    CLEAR     60  53  77 S8        30.09S
WAHOO          FAIR      62  54  73 SE10      30.07S
$$



USA.gov is the U.S. government's official web portal to all federal, state and local government web resources and services.